timestamp,wind_dir_avg,wind_spd_max_dir,wind_spd_avg,wind_spd_gust,battery_voltage,lat,long
2017-10-18 00:00:00+00:00,349.0,344.0,3.34,3.82,12.6,47.59359,-54.27349
2017-10-18 00:10:00+00:00,350.0,357.0,3.15,3.88,12.5,47.59359,-54.27349
2017-10-18 00:20:00+00:00,343.0,340.0,3.81,4.61,12.6,47.59359,-54.27349
2017-10-18 00:30:00+00:00,342.0,341.0,6.84,7.81,12.6,47.59359,-54.27349
2017-10-18 00:40:00+00:00,344.0,342.0,5.96,6.83,12.6,47.59359,-54.27349
2017-10-18 00:50:00+00:00,355.0,349.0,6.16,7.07,12.6,47.59359,-54.27349
2017-10-18 01:00:00+00:00,4.0,1.0,6.69,7.71,12.5,47.59359,-54.27349
2017-10-18 01:10:00+00:00,24.0,30.0,6.07,7.42,12.4,47.59359,-54.27349
2017-10-18 01:20:00+00:00,17.0,20.0,6.33,6.98,12.6,47.59359,-54.27349
2017-10-18 01:30:00+00:00,17.0,17.0,4.24,5.08,12.6,47.59359,-54.27349
2017-10-18 01:40:00+00:00,340.0,338.0,5.19,5.95,12.6,47.59359,-54.27349
2017-10-18 01:50:00+00:00,327.0,341.0,4.34,5.73,12.6,47.59359,-54.27349
2017-10-18 02:00:00+00:00,329.0,331.0,4.39,5.32,12.5,47.59359,-54.27349
2017-10-18 02:10:00+00:00,339.0,343.0,5.81,6.66,12.4,47.59359,-54.27349
2017-10-18 02:20:00+00:00,335.0,332.0,5.59,6.47,12.6,47.59359,-54.27349
2017-10-18 02:30:00+00:00,345.0,348.0,5.95,6.98,12.6,47.59359,-54.27349
2017-10-18 02:40:00+00:00,344.0,344.0,5.94,6.86,12.6,47.59359,-54.27349
2017-10-18 02:50:00+00:00,339.0,335.0,5.65,6.63,12.6,47.59359,-54.27349
2017-10-18 03:00:00+00:00,337.0,339.0,6.63,7.51,12.5,47.59359,-54.27349
2017-10-18 03:10:00+00:00,354.0,359.0,6.68,8.0,12.4,47.59359,-54.27349
2017-10-18 03:20:00+00:00,349.0,346.0,7.65,8.58,12.6,47.59359,-54.27349
2017-10-18 03:30:00+00:00,351.0,353.0,8.89,10.61,12.6,47.59359,-54.27349
2017-10-18 03:40:00+00:00,349.0,355.0,9.58,10.68,12.6,47.59359,-54.27349
2017-10-18 03:50:00+00:00,346.0,345.0,9.52,10.34,12.6,47.59359,-54.27349
2017-10-18 04:00:00+00:00,347.0,343.0,9.27,10.54,12.5,47.59359,-54.27349
2017-10-18 04:10:00+00:00,341.0,341.0,8.8,10.11,12.4,47.59359,-54.27349
2017-10-18 04:20:00+00:00,345.0,345.0,8.46,9.83,12.6,47.59359,-54.27349
2017-10-18 04:30:00+00:00,343.0,349.0,8.18,9.82,12.6,47.59359,-54.27349
2017-10-18 04:40:00+00:00,344.0,345.0,7.3,8.28,12.6,47.59359,-54.27349
2017-10-18 04:50:00+00:00,341.0,340.0,5.11,6.21,12.6,47.59359,-54.27349
2017-10-18 05:00:00+00:00,334.0,329.0,3.81,4.6,12.5,47.59359,-54.27349
2017-10-18 05:10:00+00:00,339.0,339.0,3.89,4.5,12.4,47.59359,-54.27349
2017-10-18 05:20:00+00:00,341.0,343.0,3.23,3.84,12.6,47.59359,-54.27349
2017-10-18 05:30:00+00:00,328.0,335.0,3.55,4.22,12.6,47.59359,-54.27349
2017-10-18 05:40:00+00:00,321.0,322.0,3.94,4.74,12.6,47.59359,-54.27349
2017-10-18 05:50:00+00:00,311.0,310.0,3.66,5.14,12.6,47.59359,-54.27349
2017-10-18 06:00:00+00:00,322.0,326.0,2.91,3.83,12.5,47.59359,-54.27349
2017-10-18 06:10:00+00:00,312.0,311.0,4.98,5.62,12.4,47.59359,-54.27349
2017-10-18 06:20:00+00:00,306.0,304.0,4.96,5.93,12.6,47.59359,-54.27349
2017-10-18 06:30:00+00:00,311.0,312.0,5.59,6.89,12.6,47.59359,-54.27349
2017-10-18 06:40:00+00:00,308.0,313.0,6.19,7.13,12.6,47.59359,-54.27349
2017-10-18 06:50:00+00:00,309.0,309.0,6.13,7.51,12.6,47.59359,-54.27349
2017-10-18 07:00:00+00:00,309.0,307.0,6.11,7.18,12.5,47.59359,-54.27349
2017-10-18 07:10:00+00:00,312.0,307.0,6.52,7.3,12.4,47.59359,-54.27349
2017-10-18 07:20:00+00:00,315.0,309.0,5.32,6.15,12.5,47.59359,-54.27349
2017-10-18 07:30:00+00:00,308.0,318.0,5.49,6.08,12.6,47.59359,-54.27349
2017-10-18 07:40:00+00:00,311.0,313.0,4.97,5.91,12.6,47.59359,-54.27349
2017-10-18 07:50:00+00:00,305.0,298.0,5.04,5.98,12.6,47.59359,-54.27349
2017-10-18 08:00:00+00:00,308.0,309.0,4.47,5.48,12.5,47.59359,-54.27349
2017-10-18 08:10:00+00:00,314.0,318.0,4.9,5.75,12.4,47.59359,-54.27349
2017-10-18 08:20:00+00:00,312.0,316.0,4.63,5.42,12.6,47.59359,-54.27349
2017-10-18 08:30:00+00:00,307.0,305.0,4.16,4.87,12.6,47.59359,-54.27349
2017-10-18 08:40:00+00:00,305.0,307.0,4.05,5.33,12.6,47.59359,-54.27349
2017-10-18 08:50:00+00:00,284.0,286.0,3.5,4.32,12.6,47.59359,-54.27349
2017-10-18 09:00:00+00:00,287.0,297.0,3.7,4.51,12.5,47.59359,-54.27349
2017-10-18 09:10:00+00:00,304.0,307.0,4.01,4.8,12.4,47.59359,-54.27349
2017-10-18 09:20:00+00:00,302.0,290.0,3.98,4.94,12.6,47.59359,-54.27349
2017-10-18 09:30:00+00:00,287.0,285.0,2.86,3.56,12.6,47.59359,-54.27349
2017-10-18 09:40:00+00:00,306.0,309.0,3.27,4.05,12.6,47.59359,-54.27349
2017-10-18 09:50:00+00:00,289.0,290.0,3.83,4.45,12.6,47.59359,-54.27349
2017-10-18 10:00:00+00:00,296.0,300.0,4.32,5.11,12.5,47.59359,-54.27349
2017-10-18 10:10:00+00:00,289.0,290.0,3.07,3.78,12.5,47.59359,-54.27349
2017-10-18 10:20:00+00:00,294.0,300.0,3.56,4.04,12.7,47.59359,-54.27349
2017-10-18 10:30:00+00:00,290.0,293.0,4.06,4.59,12.8,47.59359,-54.27349
2017-10-18 10:40:00+00:00,278.0,288.0,3.72,4.8,13.0,47.59359,-54.27349
2017-10-18 10:50:00+00:00,279.0,285.0,1.84,2.52,14.1,47.59359,-54.27349
2017-10-18 11:00:00+00:00,254.0,273.0,0.52,1.05,13.3,47.59359,-54.27349
2017-10-18 11:10:00+00:00,275.0,286.0,0.86,1.36,13.4,47.59359,-54.27349
2017-10-18 11:20:00+00:00,245.0,229.0,1.28,2.24,13.7,47.59359,-54.27349
2017-10-18 11:30:00+00:00,261.0,257.0,1.5,2.47,13.9,47.59359,-54.27349
2017-10-18 11:40:00+00:00,237.0,237.0,0.93,1.61,14.2,47.59359,-54.27349
2017-10-18 11:50:00+00:00,221.0,216.0,2.23,2.9,13.8,47.59359,-54.27349
2017-10-18 12:00:00+00:00,235.0,227.0,3.06,3.47,13.8,47.59359,-54.27349
2017-10-18 12:10:00+00:00,246.0,243.0,2.19,2.76,13.8,47.59359,-54.27349
2017-10-18 12:20:00+00:00,254.0,252.0,2.29,2.56,14.4,47.59359,-54.27349
2017-10-18 12:30:00+00:00,260.0,261.0,3.67,4.21,13.8,47.59359,-54.27349
2017-10-18 12:40:00+00:00,233.0,233.0,3.25,3.94,14.2,47.59359,-54.27349
2017-10-18 12:50:00+00:00,249.0,249.0,3.13,3.8,14.2,47.59359,-54.27349
2017-10-18 13:00:00+00:00,242.0,250.0,4.08,4.69,13.6,47.59359,-54.27349
2017-10-18 13:10:00+00:00,226.0,219.0,4.21,5.32,14.1,47.59359,-54.27349
2017-10-18 13:20:00+00:00,230.0,231.0,4.6,5.09,13.7,47.59359,-54.27349
2017-10-18 13:30:00+00:00,240.0,239.0,4.49,5.99,13.8,47.59359,-54.27349
2017-10-18 13:40:00+00:00,250.0,256.0,5.98,6.89,14.1,47.59359,-54.27349
2017-10-18 13:50:00+00:00,247.0,246.0,3.64,4.4,14.1,47.59359,-54.27349
2017-10-18 14:00:00+00:00,231.0,232.0,6.05,7.1,13.7,47.59359,-54.27349
2017-10-18 14:10:00+00:00,246.0,245.0,5.33,7.05,13.8,47.59359,-54.27349
2017-10-18 14:20:00+00:00,251.0,257.0,5.91,6.47,13.7,47.59359,-54.27349
2017-10-18 14:30:00+00:00,245.0,240.0,7.1,8.36,13.8,47.59359,-54.27349
2017-10-18 14:40:00+00:00,262.0,259.0,7.66,8.56,13.8,47.59359,-54.27349
2017-10-18 14:50:00+00:00,242.0,242.0,5.81,6.32,13.8,47.59359,-54.27349
2017-10-18 15:00:00+00:00,258.0,273.0,6.54,8.68,13.7,47.59359,-54.27349
2017-10-18 15:10:00+00:00,235.0,233.0,6.19,7.34,14.3,47.59359,-54.27349
2017-10-18 15:20:00+00:00,259.0,261.0,6.32,7.23,13.8,47.59359,-54.27349
2017-10-18 15:30:00+00:00,273.0,277.0,6.33,6.88,13.8,47.59359,-54.27349
2017-10-18 15:40:00+00:00,263.0,266.0,5.69,6.44,13.8,47.59359,-54.27349
2017-10-18 15:50:00+00:00,247.0,237.0,6.51,8.01,13.7,47.59359,-54.27349
2017-10-18 16:00:00+00:00,245.0,240.0,7.44,9.26,14.4,47.59359,-54.27349
2017-10-18 16:10:00+00:00,247.0,249.0,6.68,8.5,13.8,47.59359,-54.27349
2017-10-18 16:20:00+00:00,260.0,253.0,7.02,8.47,13.8,47.59359,-54.27349
2017-10-18 16:30:00+00:00,237.0,243.0,7.0,8.4,13.9,47.59359,-54.27349
2017-10-18 16:40:00+00:00,252.0,254.0,6.42,7.61,14.2,47.59359,-54.27349
2017-10-18 16:50:00+00:00,254.0,251.0,6.99,7.91,14.2,47.59359,-54.27349
2017-10-18 17:00:00+00:00,249.0,245.0,7.34,8.46,13.7,47.59359,-54.27349
2017-10-18 17:10:00+00:00,251.0,255.0,8.2,9.47,13.9,47.59359,-54.27349
2017-10-18 17:20:00+00:00,267.0,270.0,8.41,9.62,13.7,47.59359,-54.27349
2017-10-18 17:30:00+00:00,267.0,270.0,7.95,9.41,14.0,47.59359,-54.27349
2017-10-18 17:40:00+00:00,269.0,274.0,6.92,7.65,14.0,47.59359,-54.27349
2017-10-18 17:50:00+00:00,263.0,265.0,7.54,8.22,14.1,47.59359,-54.27349
2017-10-18 18:00:00+00:00,265.0,264.0,7.6,8.6,13.8,47.59359,-54.27349
2017-10-18 18:10:00+00:00,258.0,253.0,7.99,9.44,13.6,47.59359,-54.27349
2017-10-18 18:20:00+00:00,258.0,257.0,7.95,8.98,13.7,47.59359,-54.27349
2017-10-18 18:30:00+00:00,241.0,243.0,7.13,8.25,13.8,47.59359,-54.27349
2017-10-18 18:40:00+00:00,248.0,250.0,9.79,10.82,13.8,47.59359,-54.27349
2017-10-18 18:50:00+00:00,252.0,249.0,8.65,9.72,13.8,47.59359,-54.27349
2017-10-18 19:00:00+00:00,240.0,244.0,8.28,9.34,13.8,47.59359,-54.27349
2017-10-18 19:10:00+00:00,251.0,252.0,9.44,10.97,13.6,47.59359,-54.27349
2017-10-18 19:20:00+00:00,240.0,244.0,8.17,9.69,13.6,47.59359,-54.27349
2017-10-18 19:30:00+00:00,260.0,261.0,9.71,10.9,13.5,47.59359,-54.27349
2017-10-18 19:40:00+00:00,249.0,255.0,8.44,9.26,13.4,47.59359,-54.27349
2017-10-18 19:50:00+00:00,253.0,255.0,10.34,12.0,13.4,47.59359,-54.27349
2017-10-18 20:00:00+00:00,247.0,245.0,9.42,11.12,13.3,47.59359,-54.27349
2017-10-18 20:10:00+00:00,253.0,249.0,10.71,12.44,13.1,47.59359,-54.27349
2017-10-18 20:20:00+00:00,243.0,251.0,9.09,11.02,13.1,47.59359,-54.27349
2017-10-18 20:30:00+00:00,241.0,248.0,8.01,8.99,13.0,47.59359,-54.27349
2017-10-18 20:40:00+00:00,236.0,233.0,8.34,9.85,13.0,47.59359,-54.27349
2017-10-18 20:50:00+00:00,240.0,238.0,8.54,10.18,13.0,47.59359,-54.27349
2017-10-18 21:00:00+00:00,237.0,228.0,8.77,9.98,12.9,47.59359,-54.27349
2017-10-18 21:10:00+00:00,242.0,237.0,7.85,9.15,12.7,47.59359,-54.27349
2017-10-18 21:20:00+00:00,234.0,231.0,9.25,10.4,12.8,47.59359,-54.27349
2017-10-18 21:30:00+00:00,240.0,233.0,9.32,10.98,12.8,47.59359,-54.27349
2017-10-18 21:40:00+00:00,234.0,233.0,10.25,11.31,12.8,47.59359,-54.27349
2017-10-18 21:50:00+00:00,234.0,232.0,9.0,10.77,12.8,47.59359,-54.27349
2017-10-18 22:00:00+00:00,229.0,231.0,9.28,10.18,12.8,47.59359,-54.27349
2017-10-18 22:10:00+00:00,239.0,248.0,8.27,9.55,12.6,47.59359,-54.27349
2017-10-18 22:20:00+00:00,236.0,236.0,10.36,11.89,12.8,47.59359,-54.27349
2017-10-18 22:30:00+00:00,241.0,249.0,9.1,10.69,12.8,47.59359,-54.27349
2017-10-18 22:40:00+00:00,238.0,241.0,10.67,12.19,12.8,47.59359,-54.27349
2017-10-18 22:50:00+00:00,237.0,238.0,10.02,12.06,12.8,47.59359,-54.27349
2017-10-18 23:00:00+00:00,236.0,233.0,9.44,10.78,12.7,47.59359,-54.27349
2017-10-18 23:10:00+00:00,236.0,240.0,9.07,10.64,12.6,47.59359,-54.27349
2017-10-18 23:20:00+00:00,232.0,234.0,9.67,11.23,12.7,47.59359,-54.27349
2017-10-18 23:30:00+00:00,229.0,232.0,10.27,11.99,12.7,47.59359,-54.27349
2017-10-18 23:40:00+00:00,236.0,242.0,9.23,10.76,12.8,47.59359,-54.27349
2017-10-18 23:50:00+00:00,242.0,235.0,9.09,11.41,12.8,47.59359,-54.27349
